Location: Arleux
(50.3632°N, 2.8721°E)
Time: 21:39:25
(UTC+00:00)

Cosmos 1975 Rocket - Pass Details

Date: 15 December 2019
Orbit: 605 x 633 km, 82.5° (Epoch: 17 January)

Event Time Altitude Azimuth Distance (km) Brightness Sun altitude
Rises 06:16:53 0° 350° (N) 2,922 6.2 -12.6°
Reaches altitude 10° 06:19:07 10° 352° (N) 2,015 5.4 -12.3°
Maximum altitude 06:23:36 78° 80° (E) 650 3.2 -11.6°
Drops below altitude 10° 06:28:04 10° 166° (SSE) 2,010 6.2 -11.0°
Sets 06:30:18 0° 168° (SSE) 2,915 7.1 -10.7°
